Regional Weather Roundup
Issued by NWS

Home | Current Version | Previous Version | Text Only | Print | Product List | Glossary On
Versions: 1 2 3 4 5 6 7 8 9 10 11 12 13 14 15 16 17 18 19 20 21 22 23 24 25 26 27 28 29 30 31 32 33 34 35 36 37 38 39 40 41 42 43 44 45 46 47 48 49
000
ASUS45 KBOI 251010
RWRID
WEATHER ROUNDUP FOR IDAHO
NATIONAL WEATHER SERVICE BOISE ID
300 AM MST THU DEC 25 2014

NOTE: "FAIR" INDICATES FEW OR NO CLOUDS BELOW 12000 FEET
WITH NO SIGNIFICANT WEATHER AND/OR OBSTRUCTIONS TO VISIBILITY

IDZ012-014-251100-
SOUTHWEST IDAHO


CITY           SKY/WX    TMP DP  RH WIND       PRES   REMARKS
BOISE          CLOUDY    32  25  75 NW24G31   29.74R WCI  19
CALDWELL       MOCLDY    32  19  59 SW20      29.79R WCI  20
MOUNTAIN HOME  MOCLDY    31  24  74 NW32G41   29.68R WCI  16
$$

IDZ016-017-251100-
SOUTHCENTRAL IDAHO


CITY           SKY/WX    TMP DP  RH WIND       PRES   REMARKS
JEROME         LGT SNOW  27  25  92 W33G48    29.51R FOG     WCI  10
TWIN FALLS     HVY SNOW  28  24  85 W40G54    29.54R VSB 1/4 WCI  10
$$

IDZ019>023-251100-
SOUTHEAST IDAHO


CITY           SKY/WX    TMP DP  RH WIND       PRES   REMARKS
IDAHO FALLS    LGT SNOW  29  27  92 SW14      29.41R FOG     WCI  18
POCATELLO      LGT SNOW  29  28  96 SW23G33   29.45R FOG     WCI  15
REXBURG        LGT SNOW  27  26  96 SW10      29.40R FOG     WCI  17
$$

IDZ006-010-011-018-031-032-251100-
CENTRAL IDAHO MOUNTAINS


CITY           SKY/WX    TMP DP  RH WIND       PRES   REMARKS
MCCALL         LGT SNOW  26  21  81 NW10      29.65R WCI  16
HAILEY         CLOUDY    32  21  64 NW12G18   29.45R WCI  23
STANLEY          N/A     23  15  71 NW10G18   29.54R WCI  12
SALMON         CLOUDY    30  21  69 CALM      29.58R
CHALLIS        CLOUDY    28  19  69 N7        29.54R WCI  21
$$

IDZ002-004-006-007-026-251100-
NORTHERN IDAHO


CITY           SKY/WX    TMP DP  RH WIND       PRES   REMARKS
LEWISTON       MOCLDY    38  27  64 W15       29.88R WCI  29
LOWELL           N/A     36  35  96 CALM      29.83R
COEUR D`ALENE  PTCLDY    30  28  93 W5        29.84R WCI  25
MULLAN PASS    FOG       24  20  84 N7        29.67R VSB 1/2 WCI  16
$$


USA.gov is the U.S. government's official web portal to all federal, state and local government web resources and services.